Home > Weather > Willemstad > Past weeks

Flag for Curaçao Past Weather in Willemstad, Curaçao — Yesterday and Last 2 Weeks

Now
82 °F

Passing clouds.


Feels Like: 91 °F
Forecast: 82 / 89 °F
Wind: 16 mph from East

Location: Hato Airport - Curacao

Current Time: May 30, 2016 at 1:12:00 AM

Latest Report: May 30, 2016 at 12:00 AM


Visibility: N/A

Pressure: 29.95 "Hg

Humidity: 84%

Dew Point: 77 °F

Location of WillemstadLocation

Past Weather in Willemstad — Graph

°F

Willemstad Temperature Yesterday

Maximum temperature yesterday: 88 °F (at 10:00 AM)
Minimum temperature yesterday: 82 °F (at 12:00 AM)
Average temperature yesterday: 84 °F

High & Low Weather Summary for the Past Weeks

 TemperatureHumidityPressure
High90 °F (May 15, 12:00 PM)94% (May 22, 4:00 AM)30.01 "Hg (May 22, 4:00 AM)
Low79 °F (May 27, 2:00 AM)59% (May 16, 3:00 PM)29.80 "Hg (May 22, 5:00 PM)
Average85 °F77%29.93 "Hg
* Reported May 15 12:00 AM — May 30 12:00 AM, Willemstad, Weather by CustomWeather, © 2016

Note: Actual official high and low records may vary slightly from our data, if they occured in-between our weather recording intervals... More about our weather records

Advertising

Willemstad Weather History for the Previous 24 Hours

Scroll right to see more
 ConditionsComfort  
Time TempWeatherWind HumidityBarometerVisibility
12:00 AM
Mon, May 30
82 °FPassing clouds.16 mph84%29.95 "HgN/A
11:00 PM
Sun, May 29
82 °FPassing clouds.15 mph84%29.95 "HgN/A
10:00 PM82 °FPassing clouds.15 mph84%29.95 "HgN/A
9:00 PM82 °FPassing clouds.16 mph84%29.95 "HgN/A
8:00 PM82 °FPassing clouds.13 mph84%29.92 "HgN/A
7:00 PM82 °FPassing clouds.13 mph79%29.89 "HgN/A
6:00 PM84 °FPassing clouds.12 mph79%29.89 "HgN/A
5:00 PM84 °FPassing clouds.12 mph79%29.86 "HgN/A
4:00 PM86 °FPassing clouds.12 mph75%29.86 "HgN/A
3:00 PM88 °FPassing clouds.15 mph62%29.89 "HgN/A
2:00 PM88 °FPassing clouds.15 mph66%29.92 "HgN/A
1:00 PM88 °FPassing clouds.16 mph66%29.95 "HgN/A
12:00 PM86 °FPartly sunny.17 mph75%29.95 "HgN/A
11:00 AM88 °FPartly sunny.20 mph66%29.95 "HgN/A
10:00 AM88 °FScattered clouds.17 mph70%29.98 "HgN/A
9:00 AM84 °FPartly sunny.18 mph79%29.95 "HgN/A
8:00 AM84 °FPartly sunny.17 mph84%29.95 "HgN/A
7:00 AM82 °FPassing clouds.14 mph84%29.89 "HgN/A
6:00 AM82 °FPassing clouds.14 mph84%29.89 "HgN/A
5:00 AM82 °FPassing clouds.12 mph84%29.92 "HgN/A
4:00 AM82 °FPassing clouds.14 mph84%29.92 "HgN/A
3:00 AM82 °FPassing clouds.15 mph84%29.92 "HgN/A
2:00 AM82 °FPassing clouds.15 mph89%29.92 "HgN/A
1:00 AM82 °FPassing clouds.16 mph89%29.92 "HgN/A
Weather by CustomWeather, © 2016

See weather overviewHow to use our weather pages